Regional Weather Roundup
Issued by NWS Bismarck, ND

Home | Current Version | Previous Version | Text Only | Print | Product List | Glossary On
Versions: 1 2 3 4 5 6 7 8 9 10 11 12 13 14 15 16 17 18 19 20 21 22 23 24 25 26 27 28 29 30 31 32 33 34 35 36 37 38 39 40 41 42 43 44 45 46 47 48 49 50
000
ASUS43 KBIS 280510
RWRBIS

NWR BROADCAST TEXT
NATIONAL WEATHER SERVICE BISMARCK ND
1200 AM CDT FRI APR 28 2017

NOTE: "FAIR" INDICATES FEW OR NO CLOUDS BELOW 12,000 FEET WITH NO
SIGNIFICANT WEATHER AND/OR OBSTRUCTIONS TO VISIBILITY.


CITY           SKY/WX    TMP DP  RH WIND       PRES   REMARKS
WILLISTON      FAIR      39  13  34 E8        29.85R
MINOT          FAIR      32  25  75 N3        29.86R
MINOT AFB      FAIR      37  26  65 NE3       29.86R
BISMARCK       FAIR      36  27  69 NE8       29.85R
DICKINSON      FAIR      32  16  51 E6        29.80R
GARRISON         N/A     37  26  64 E8        29.84R
HETTINGER ARPT FAIR      32  23  69 E6        29.81R
JAMESTOWN      CLOUDY    38  30  73 NE9       29.83R
HAZEN          FAIR      23  18  80 CALM      29.86R
LINTON           N/A     32  27  80 E6        29.85R
MANDAN         FAIR      37  27  65 E7G14     29.84R
STANLEY        FAIR      36  25  64 NE6       29.87S
TIOGA          FAIR      30  14  51 CALM      29.87R
WATFORD CITY   FAIR      28  16  59 E7        29.84R
$$

CITY           SKY/WX    TMP DP  RH WIND       PRES   REMARKS
GRAND FORKS    MOCLDY    33  29  85 NW5       29.83R
GRAND FORKS AF MOCLDY    31  28  88 NW6       29.83R
DEVILS LAKE    FAIR      35  28  75 CALM      29.85R
FARGO          MOCLDY    36  29  75 NW17G25   29.82R
CAVALIER       FAIR      32  27  80 NW6       29.82R
GRAFTON        FAIR      32  28  86 NW7       29.85R
LANGDON        FAIR      27  25  93 W8        29.83R WCI  18
ROLLA          FAIR      30  25  80 NW7       29.87R
$$

CITY           SKY/WX    TMP DP  RH WIND       PRES   REMARKS
ABERDEEN       FAIR      30  26  85 N5        29.82R
MOBRIDGE       FAIR      39  23  52 E12       29.79R
BUFFALO          N/A     38  27  64 E13       29.70S
RAPID CITY     CLOUDY    39  31  72 NE8       29.75R
GLASGOW        CLOUDY    46  15  28 E12       29.80R
SIDNEY         FAIR      36  19  50 N6        29.84R
WOLF POINT     FAIR      36  18  48 NE8       29.82R
GLENDIVE       FAIR      37  24  59 NE8       29.81R
MILES CITY     FAIR      44  25  47 E5        29.76R
BAKER          FAIR      32  25  75 SE5       29.79R
$$

CITY           SKY/WX    TMP DP  RH WIND       PRES   REMARKS
BILLINGS       LGT RAIN  39  37  92 N6        29.78S
GREAT FALLS    CLOUDY    39  35  86 CALM      29.86R
REGINA         PTCLDY    39  10  30 E13       29.87S
ESTEVAN        PTCLDY    36  27  69 SE2       29.87R
$$




USA.gov is the U.S. government's official web portal to all federal, state and local government web resources and services.